Location: Waco, TX
(31.5480°N, 97.1670°W)
Time: 21:41:19
(UTC-06:00)

ISS - Pass Details

Date: 21 November 2017
Orbit: 402 x 407 km, 51.6° (Epoch: 13 December)

Event Time Altitude Azimuth Distance (km) Brightness Sun altitude
Rises 03:32:24 0° 331° (NNW) 2,317 - -44.4°
Reaches altitude 10° 03:35:06 10° 355° (N) 1,454 - -43.8°
Maximum altitude 03:37:09 16° 35° (NE) 1,164 - -43.4°
Drops below altitude 10° 03:39:13 10° 74° (ENE) 1,450 - -42.9°
Sets 03:41:53 0° 98° (E) 2,305 - -42.4°
